EW4279 Weather Reports


time (UTC)temp
C
wind
direction
speed
KPH
gust
KPH
rain 1hr
cm
rain 24hr
cm
rain mn
cm
humidity
%
barometer
mb
20260507070104 8 324 0.0 3.2 0.00 1.17 0.28 100 1005.2
20260507064625 8 324 0.0 4.8 0.00 1.17 0.28 100 1005.0
20260507063051 8 324 0.0 9.7 0.00 1.17 0.28 100 1005.0
20260507061542 9 323 0.0 3.2 0.00 1.17 0.28 100 1004.7
20260507060049 9 323 0.0 6.4 0.00 1.17 0.28 100 1004.7
20260507054534 9 324 0.0 9.7 0.00 1.17 0.28 100 1004.6
20260507053030 9 327 3.2 14.5 0.00 1.17 0.28 100 1004.3
20260507051525 10 343 1.6 12.9 0.05 1.17 0.28 100 1004.4
20260507050034 10 331 3.2 14.5 0.25 1.17 0.28 100 1004.2
20260507044516 10 327 3.2 14.5 0.30 1.17 0.28 100 1004.4
20260507043011 11 300 6.4 17.7 0.33 1.17 0.28 100 1004.3
20260507041520 11 351 4.8 12.9 0.28 1.12 0.23 100 1004.3
20260507040002 11 340 4.8 17.7 0.05 0.89 0.00 100 1004.7
20260507034559 12 355 6.4 16.1 0.03 0.86 0.86 100 1003.8
20260507033054 12 320 4.8 11.3 0.00 0.84 0.84 100 1003.6
20260507031549 12 180 0.0 0.0 0.00 0.84 0.84 100 1003.4
20260507030046 12 180 0.0 3.2 0.00 0.84 0.84 100 1003.3
20260507024542 12 180 0.0 4.8 0.03 0.84 0.84 100 1003.3
20260507023041 12 180 0.0 3.2 0.03 0.84 0.84 100 1003.5
20260507021536 12 180 0.0 4.8 0.03 0.84 0.84 100 1003.5
20260507020032 12 180 0.0 8.0 0.05 0.84 0.84 100 1003.6
20260507014524 12 180 3.2 8.0 0.03 0.81 0.81 100 1003.6
20260507013019 12 198 0.0 4.8 0.03 0.81 0.81 100 1003.9
20260507011515 12 194 0.0 8.0 0.03 0.81 0.81 100 1003.8
20260507010010 12 207 3.2 11.3 0.00 0.79 0.79 100 1003.9
20260507004506 12 188 4.8 17.7 0.00 0.81 0.79 100 1004.0
20260507003001 12 180 3.2 11.3 0.00 0.81 0.79 100 1003.9
20260507001605 12 199 1.6 11.3 0.00 0.81 0.79 100 1004.0
20260507000053 13 179 0.0 12.9 0.00 0.81 0.79 100 1003.9
20260506234552 13 170 4.8 14.5 0.00 0.89 0.79 100 1003.9
20260506233044 13 155 3.2 16.1 0.00 0.89 0.79 100 1004.0
20260506231555 13 112 3.2 12.9 0.00 0.89 0.79 100 1004.0
20260506230045 13 183 3.2 11.3 0.00 0.89 0.79 100 1003.9
20260506224536 13 165 3.2 9.7 0.00 0.89 0.79 100 1004.2
20260506223026 13 148 3.2 12.9 0.00 0.89 0.79 100 1004.3
20260506221522 13 179 4.8 11.3 0.00 0.89 0.79 100 1004.5
20260506220023 13 170 3.2 17.7 0.03 0.89 0.79 100 1004.7
20260506214513 13 175 4.8 17.7 0.08 0.89 0.79 100 1004.7
20260506213008 13 165 3.2 11.3 0.13 0.89 0.79 100 1004.9
20260506211503 13 152 3.2 12.9 0.13 0.86 0.76 100 1004.9
20260506210106 14 176 4.8 14.5 0.15 0.86 0.76 100 1004.9
20260506204606 14 188 1.6 8.0 0.13 0.81 0.71 100 1004.8
20260506203052 14 202 0.0 6.4 0.13 0.76 0.66 100 1005.1
20260506201549 14 203 1.6 6.4 0.13 0.71 0.64 100 1005.2
20260506200042 14 203 1.6 6.4 0.23 0.71 0.61 100 1005.4
20260506194540 14 184 0.0 6.4 0.46 0.69 0.58 100 1005.5
20260506193034 14 184 1.6 9.7 0.48 0.64 0.53 100 1005.6
20260506191530 15 187 0.0 11.3 0.48 0.61 0.51 100 1005.6
20260506190028 15 247 0.0 6.4 0.36 0.46 0.36 14 1006.0
20260506184524 16 184 1.6 8.0 0.13 0.23 0.13 28 1005.6
20260506183016 16 181 0.0 11.3 0.03 0.13 0.03 48 1005.7
20260506181512 16 128 3.2 16.1 0.03 0.13 0.03 55 1005.4
20260506180010 17 158 1.6 12.9 0.00 0.10 0.00 60 1005.5
20260506174505 17 180 4.8 14.5 0.00 0.10 0.00 61 1005.5
20260506173100 17 157 3.2 14.5 0.00 0.10 0.00 62 1005.8
20260506171603 17 154 3.2 11.3 0.00 0.10 0.00 61 1006.1
20260506170053 17 146 3.2 12.9 0.00 0.10 0.00 64 1006.4
20260506164548 17 167 3.2 8.0 0.00 0.10 0.00 64 1006.6
20260506163040 17 156 3.2 9.7 0.00 0.10 0.00 63 1006.9
20260506161541 17 229 3.2 9.7 0.00 0.10 0.00 61 1007.3
20260506160032 16 146 1.6 6.4 0.00 0.10 0.00 52 1007.6
20260506154528 16 150 1.6 8.0 0.00 0.10 0.00 54 1007.8
20260506153022 16 117 3.2 14.5 0.00 0.10 0.00 48 1007.8
20260506151523 16 153 4.8 12.9 0.00 0.10 0.00 54 1007.9
20260506150013 16 158 3.2 11.3 0.00 0.10 0.00 57 1007.7
20260506144509 16 136 1.6 8.0 0.00 0.10 0.00 55 1007.6
20260506143006 16 138 1.6 8.0 0.00 0.10 0.00 57 1007.3
20260506141601 16 138 3.2 8.0 0.00 0.10 0.00 50 1007.5
20260506140056 16 166 3.2 8.0 0.00 0.10 0.00 52 1008.0
20260506134552 15 167 0.0 4.8 0.00 0.10 0.00 46 1008.0
20260506133047 15 167 0.0 0.0 0.00 0.10 0.00 42 1008.2
20260506131551 14 167 0.0 4.8 0.00 0.10 0.00 42 1007.9
20260506130038 14 167 0.0 4.8 0.00 0.10 0.00 35 1008.1
20260506124535 13 167 1.6 6.4 0.00 0.10 0.00 29 1007.9
20260506123030 13 167 0.0 0.0 0.00 0.10 0.00 18 1008.2
20260506121525 12 167 0.0 0.0 0.00 0.10 0.00 100 1008.5
20260506120022 11 167 0.0 0.0 0.00 0.10 0.00 100 1008.5
20260506114531 11 167 0.0 0.0 0.00 0.10 0.00 100 1008.7
20260506113013 11 167 0.0 0.0 0.00 0.10 0.00 100 1008.8
20260506111508 11 167 0.0 3.2 0.00 0.10 0.00 100 1008.9
20260506110004 11 167 0.0 0.0 0.00 0.10 0.00 100 1008.9
20260506104608 11 167 0.0 3.2 0.00 0.10 0.00 100 1008.8
20260506103056 11 167 0.0 0.0 0.00 0.10 0.00 100 1008.8
20260506101551 11 167 0.0 0.0 0.00 0.10 0.00 100 1008.4
20260506094542 10 167 0.0 0.0 0.00 0.10 0.00 100 1008.5
20260506093037 11 167 0.0 0.0 0.00 0.10 0.00 100 1008.5
20260506091534 11 167 0.0 0.0 0.00 0.10 0.00 100 1008.4
20260506090029 11 167 0.0 0.0 0.00 0.10 0.00 100 1008.2
20260506084525 11 167 0.0 0.0 0.00 0.10 0.00 100 1007.9
20260506083020 11 167 0.0 0.0 0.00 0.10 0.00 100 1007.8
20260506081515 11 167 0.0 0.0 0.00 0.10 0.00 100 1007.8
20260506073002 11 167 0.0 0.0 0.00 0.10 0.00 100 1007.8
20260506071601 11 167 0.0 0.0 0.00 0.10 0.00 100 1007.7